[[{"header":{"parameterUnit":"m.s-1","parameterCategory":1,"la1":30.2991,"la2":30.254,"lo1":-89.0895,"lo2":-89.0444,"dy":0.0017,"dx":0.0017,"nx":28,"ny":28,"refTime":"2025-05-19T09:00:00:Z","depth":0,"parameterNumber":2,"parameterNumberName":"U-component_of_WINDS"},"data":[0,0,0,0,0,0,0,0,0,0,0,0,0,0,0,0,0,0,0,0,0,0,0,0,0,0,0,0,0,0,0,0,0,0,0,0,0,0,0,0,0,0,0,0,0,0,0,0,0,0,0,0,0,0,0,0,0,0,-1.215,-1.2151,0,-1.2193,-1.2193,-1.2193,-1.2195,-1.2194,-1.2194,-1.2193,-1.2239,-1.2241,-1.2243,0,0,0,0,0,0,0,0,0,0,0,0,0,-1.2075,-1.2077,-1.215,-1.2151,-1.2151,-1.2192,-1.2193,-1.2194,-1.2195,-1.2194,-1.2194,-1.2193,-1.2239,-1.2241,-1.2243,0,0,0,0,0,0,0,0,0,0,0,0,0,-1.2112,-1.2077,-1.215,-1.2157,-1.2158,-1.2192,-1.2193,-1.2194,-1.2195,-1.2194,-1.2193,-1.2193,-1.2238,-1.2241,-1.2243,-1.2275,0,0,-1.2251,-1.2252,0,0,0,0,0,0,0,0,-1.211,-1.2114,-1.2155,-1.2156,-1.2158,-1.2187,-1.2183,-1.2221,-1.2195,-1.2181,-1.2193,-1.2192,-1.2223,-1.2227,-1.2236,-1.2277,-1.2279,-1.2251,-1.2253,-1.2254,-1.2255,0,0,0,0,0,0,0,-1.2107,-1.2113,-1.2167,-1.2156,-1.2157,-1.2159,-1.2163,-1.2191,-1.2206,-1.2182,-1.2182,-1.2187,-1.2223,-1.2234,-1.2238,-1.228,-1.2251,-1.2253,-1.2255,-1.2256,-1.235,-1.2351,0,0,0,0,0,0,-1.2103,-1.2111,-1.2166,-1.2168,-1.2131,-1.2161,-1.2166,-1.2179,-1.2206,-1.2209,-1.2188,-1.2187,-1.223,-1.2235,-1.2239,-1.2279,-1.2254,-1.2256,-1.2258,-1.2349,-1.235,-1.2352,0,0,0,0,0,0,-1.2101,-1.2108,-1.2164,-1.214,-1.2147,-1.2163,-1.2178,-1.218,-1.219,-1.221,-1.2213,-1.2195,-1.223,-1.2236,-1.2266,-1.228,-1.2257,-1.226,-1.2348,-1.235,-1.2351,-1.2358,0,0,0,0,0,0,-1.2099,-1.2107,-1.2118,-1.214,-1.2148,-1.2189,-1.2178,-1.2181,-1.2195,-1.2194,-1.2218,-1.2221,-1.2229,-1.2262,-1.2269,-1.2284,-1.2262,-1.2347,-1.2349,-1.2351,-1.2356,-1.2359,-1.2362,0,0,0,0,0,-1.2096,-1.2119,-1.2119,-1.2125,-1.2162,-1.219,-1.2195,-1.2203,-1.2196,-1.2208,-1.2221,-1.222,-1.2278,-1.2265,-1.2273,-1.2288,-1.2346,-1.2348,-1.235,-1.2355,-1.2359,-1.2362,0,0,0,0,0,0,-1.2099,-1.2122,-1.2122,-1.2151,-1.2169,-1.219,-1.2205,-1.2206,-1.2227,-1.2225,-1.2236,-1.2241,-1.2272,-1.2283,-1.2269,-1.2322,-1.2311,-1.2315,-1.2313,-1.2316,-1.2319,-1.2315,-1.2264,0,0,0,0,0,-1.2103,-1.2122,-1.2141,-1.2166,-1.2175,-1.2188,-1.2201,-1.2206,-1.2224,-1.2232,-1.2247,-1.2266,-1.2288,-1.2303,-1.2325,-1.2358,-1.2364,-1.2373,-1.2376,-1.2378,-1.2381,-1.2401,-1.2406,-1.2359,-1.2359,-1.2359,0,0,-1.2111,-1.2126,-1.2138,-1.2167,-1.2181,-1.2202,-1.2194,-1.2217,-1.2233,-1.2236,-1.2265,-1.2277,-1.2299,-1.2332,-1.2347,-1.2342,-1.2396,-1.2381,-1.2382,-1.2384,-1.2404,-1.2408,-1.2412,-1.236,-1.236,-1.236,0,0,-1.2138,-1.215,-1.2173,-1.2187,-1.2208,-1.2217,-1.2222,-1.2244,-1.2252,-1.2282,-1.2284,-1.2305,-1.2343,-1.2359,-1.2372,-1.2406,-1.2408,-1.2413,-1.2427,-1.2447,-1.2451,-1.2454,-1.2467,-1.2472,-1.2416,-1.2417,-1.2417,0,-1.2146,-1.2176,-1.2184,-1.2207,-1.222,-1.2223,-1.2247,-1.226,-1.2288,-1.2298,-1.2292,-1.2341,-1.2356,-1.2393,-1.2402,-1.2412,-1.242,-1.241,-1.2449,-1.2453,-1.2456,-1.2469,-1.2474,-1.2417,-1.2417,-1.2417,-1.2417,0,-1.2186,-1.2208,-1.2223,-1.2249,-1.2264,-1.2287,-1.23,-1.2315,-1.2319,-1.233,-1.2361,-1.238,-1.2406,-1.2415,-1.242,-1.2453,-1.245,-1.2447,-1.2437,-1.2461,-1.2473,-1.2478,-1.2418,-1.2418,-1.2418,-1.2417,0,0,-1.2214,-1.2244,-1.225,-1.2262,-1.2286,-1.2304,-1.2328,-1.2353,-1.2366,-1.2386,-1.2407,-1.244,-1.2438,-1.2453,-1.2459,-1.2477,-1.2504,-1.2472,-1.2472,-1.2477,-1.2544,-1.2546,-1.2551,-1.2505,-1.2506,-1.2507,-1.2542,0,-1.2243,-1.2285,-1.2293,-1.233,-1.2351,-1.2354,-1.2376,-1.2394,-1.2405,-1.2425,-1.2438,-1.2462,-1.2456,-1.2465,-1.2483,-1.2497,-1.2518,-1.2495,-1.2526,-1.2527,-1.252,-1.2558,-1.256,-1.2592,-1.2547,-1.2548,-1.2548,0,-1.2282,-1.2302,-1.234,-1.2363,-1.2372,-1.2391,-1.2415,-1.2434,-1.2456,-1.2463,-1.248,-1.2485,-1.2512,-1.2501,-1.254,-1.2524,-1.2538,-1.2547,-1.2549,-1.2552,-1.2539,-1.2562,-1.2603,-1.2608,-1.2556,-1.2555,-1.2555,0,-1.23,-1.2336,-1.2364,-1.2374,-1.2401,-1.2415,-1.2427,-1.2447,-1.2462,-1.2484,-1.2494,-1.2519,-1.2533,-1.2553,-1.2565,-1.2556,-1.2603,-1.2593,-1.2611,-1.2611,-1.262,-1.262,-1.2664,-1.2629,-1.2629,-1.2629,-1.2629,0,-1.2332,-1.2355,-1.2372,-1.2389,-1.2417,-1.2427,-1.2454,-1.2467,-1.2485,-1.2506,-1.2511,-1.2531,-1.2546,-1.2569,-1.2579,-1.261,-1.2616,-1.2624,-1.2626,-1.2623,-1.2622,-1.2632,-1.2631,-1.263,-1.263,-1.263,-1.2629,0,-1.2355,-1.2368,-1.2398,-1.2421,-1.2428,-1.2447,-1.2467,-1.2485,-1.2497,-1.2523,-1.253,-1.2549,-1.2576,-1.259,-1.2624,-1.2631,-1.2666,-1.2667,-1.2658,-1.2659,-1.2677,-1.2675,-1.2729,-1.2737,-1.2697,-1.2697,-1.2697,0,-1.2375,-1.2393,-1.2418,-1.2432,-1.2444,-1.2466,-1.2481,-1.2493,-1.2509,-1.2536,-1.2551,-1.2578,-1.26,-1.2643,-1.2661,-1.2687,-1.2689,-1.2706,-1.2693,-1.269,-1.269,-1.2689,-1.2691,-1.2708,-1.2709,-1.2709,-1.2709,0,-1.2408,-1.2414,-1.2435,-1.2458,-1.2476,-1.2496,-1.2515,-1.2526,-1.2542,-1.256,-1.2587,-1.2604,-1.2639,-1.2666,-1.2694,-1.2708,-1.2712,-1.2713,-1.2719,-1.2716,-1.2711,-1.2715,-1.2665,-1.2712,-1.2712,-1.2712,-1.2711,-1.2711,-1.2431,-1.2448,-1.2468,-1.2492,-1.2507,-1.2526,-1.2544,-1.2558,-1.258,-1.2608,-1.2615,-1.2644,-1.2667,-1.2704,-1.272,-1.2744,-1.274,-1.2748,-1.275,-1.2752,-1.2753,-1.2707,-1.2749,-1.2749,-1.2749,-1.2749,-1.2749,0,-1.2465,-1.2479,-1.25,-1.2527,-1.2546,-1.2547,-1.2569,-1.2585,-1.261,-1.2631,-1.2653,-1.2685,-1.2712,-1.2732,-1.276,-1.2775,-1.2778,-1.2782,-1.2781,-1.2785,-1.2754,-1.2747,-1.278,-1.278,-1.278,-1.278,-1.278,-1.278,-1.2485,-1.2514,-1.2522,-1.2559,-1.2573,-1.2601,-1.2613,-1.2631,-1.2647,-1.2682,-1.2704,-1.2717,-1.2738,-1.2768,-1.2793,-1.2798,-1.2809,-1.2813,-1.2819,-1.279,-1.2787,-1.2783,-1.2777,-1.2815,-1.2815,-1.2847,-1.2848,-1.2848]},{"header":{"parameterUnit":"m.s-1","parameterCategory":1,"la1":30.2991,"la2":30.254,"lo1":-89.0895,"lo2":-89.0444,"dy":0.0017,"dx":0.0017,"nx":28,"ny":28,"refTime":"2025-05-19T09:00:00:Z","depth":0,"parameterNumber":3,"parameterNumberName":"V-component_of_WINDS"},"data":[0,0,0,0,0,0,0,0,0,0,0,0,0,0,0,0,0,0,0,0,0,0,0,0,0,0,0,0,0,0,0,0,0,0,0,0,0,0,0,0,0,0,0,0,0,0,0,0,0,0,0,0,0,0,0,0,0,0,3.5858,3.5859,0,3.5983,3.5985,3.5986,3.6034,3.6033,3.6033,3.6032,3.6163,3.6167,3.6171,0,0,0,0,0,0,0,0,0,0,0,0,0,3.5659,3.5662,3.5858,3.5859,3.5861,3.5983,3.5985,3.5987,3.6034,3.6033,3.6033,3.6032,3.6162,3.6167,3.6171,0,0,0,0,0,0,0,0,0,0,0,0,0,3.5761,3.5663,3.5857,3.5899,3.5904,3.5983,3.5985,3.5987,3.6034,3.6033,3.6033,3.6032,3.616,3.6166,3.6172,3.6219,0,0,3.6189,3.6192,0,0,0,0,0,0,0,0,3.5755,3.5768,3.5891,3.5896,3.5902,3.5992,3.5963,3.6065,3.6034,3.5985,3.6032,3.6032,3.6107,3.6117,3.6142,3.6225,3.6231,3.619,3.6193,3.6196,3.6198,0,0,0,0,0,0,0,3.5748,3.5763,3.5907,3.5893,3.5899,3.5912,3.5925,3.5982,3.6048,3.5989,3.5993,3.6007,3.611,3.6136,3.6145,3.6233,3.619,3.6195,3.6198,3.6201,3.6361,3.6362,0,0,0,0,0,0,3.5734,3.5757,3.5903,3.5911,3.5825,3.5916,3.5931,3.5964,3.6047,3.6059,3.6007,3.6008,3.6127,3.6139,3.615,3.6211,3.6196,3.6201,3.6205,3.636,3.6361,3.6362,0,0,0,0,0,0,3.5729,3.5746,3.5898,3.5835,3.5855,3.592,3.5956,3.5967,3.5993,3.6061,3.6073,3.6022,3.6127,3.6142,3.6202,3.6217,3.6204,3.6209,3.6359,3.636,3.6361,3.6334,0,0,0,0,0,0,3.5723,3.5744,3.5763,3.5835,3.5858,3.5947,3.5957,3.597,3.6003,3.6006,3.6078,3.609,3.6128,3.6193,3.6207,3.6224,3.6214,3.6358,3.636,3.6361,3.6334,3.6334,3.6334,0,0,0,0,0,3.5716,3.5751,3.5764,3.5781,3.5883,3.5948,3.5962,3.6004,3.6004,3.6023,3.6066,3.6087,3.6212,3.6198,3.6215,3.6234,3.6357,3.6359,3.6361,3.6334,3.6334,3.6334,0,0,0,0,0,0,3.5681,3.5761,3.5777,3.5836,3.5884,3.5956,3.5982,3.6003,3.6053,3.6054,3.6105,3.6121,3.6176,3.6211,3.6194,3.6284,3.6286,3.6291,3.626,3.626,3.626,3.6252,3.6218,0,0,0,0,0,3.5679,3.5725,3.5793,3.5839,3.5862,3.5917,3.5947,3.5975,3.6028,3.605,3.6097,3.6148,3.6199,3.6231,3.6282,3.6338,3.6355,3.6359,3.6359,3.6359,3.6364,3.6396,3.6399,3.6368,3.6368,3.6368,0,0,3.5678,3.5727,3.5753,3.5833,3.5874,3.592,3.5935,3.5983,3.6018,3.6057,3.6116,3.6152,3.6213,3.6271,3.6299,3.6302,3.6376,3.6362,3.6361,3.6366,3.6398,3.6401,3.6404,3.6369,3.6369,3.6368,0,0,3.5699,3.5741,3.5783,3.5824,3.5885,3.5921,3.5931,3.5999,3.6025,3.6084,3.6114,3.6156,3.6242,3.6284,3.6316,3.635,3.6372,3.6365,3.6367,3.6398,3.64,3.6403,3.6415,3.6419,3.6369,3.6369,3.6369,0,3.569,3.576,3.5803,3.5849,3.5883,3.5919,3.5962,3.5999,3.6075,3.6097,3.6099,3.6207,3.625,3.6318,3.6326,3.6351,3.6364,3.6358,3.6396,3.6399,3.6402,3.6415,3.6419,3.6368,3.6368,3.6368,3.6368,0,3.5746,3.5794,3.5821,3.5891,3.5928,3.5973,3.6022,3.6054,3.6078,3.6114,3.6174,3.6226,3.6287,3.6305,3.633,3.6376,3.6376,3.6386,3.639,3.6403,3.6416,3.6421,3.6366,3.6367,3.6367,3.6367,0,0,3.5751,3.5842,3.5852,3.5884,3.5953,3.5991,3.6037,3.6096,3.6123,3.6172,3.6212,3.6283,3.6293,3.6329,3.6358,3.6385,3.6409,3.6392,3.6394,3.6394,3.6464,3.6456,3.6461,3.6422,3.6423,3.6424,3.6459,0,3.5782,3.5865,3.5904,3.597,3.6015,3.6048,3.6088,3.6135,3.6169,3.6212,3.625,3.63,3.6308,3.633,3.6358,3.64,3.6424,3.6398,3.6461,3.6463,3.6446,3.6468,3.6461,3.6491,3.6464,3.6465,3.6466,0,3.583,3.5879,3.5949,3.6012,3.6032,3.6067,3.6124,3.6165,3.6218,3.6241,3.628,3.6308,3.6357,3.6356,3.6424,3.6406,3.6434,3.6458,3.646,3.6469,3.6466,3.6478,3.6502,3.6507,3.6474,3.6473,3.6472,0,3.5827,3.591,3.5963,3.5989,3.6064,3.6088,3.612,3.6172,3.6205,3.6254,3.6276,3.633,3.636,3.6402,3.6443,3.6438,3.6508,3.651,3.6529,3.6528,3.6544,3.6542,3.6573,3.6559,3.6559,3.6559,3.6559,0,3.5859,3.5901,3.5963,3.5995,3.6043,3.6086,3.6132,3.6167,3.6213,3.6253,3.6285,3.6322,3.6373,3.6417,3.6449,3.6501,3.6514,3.6535,3.6543,3.6533,3.653,3.6553,3.6552,3.656,3.656,3.656,3.6559,0,3.5865,3.5908,3.5968,3.6032,3.6049,3.6082,3.6137,3.617,3.6205,3.6255,3.6269,3.6324,3.6376,3.6421,3.649,3.6512,3.6566,3.6576,3.6548,3.6553,3.657,3.6568,3.6617,3.6626,3.6604,3.6605,3.6605,0,3.5883,3.5916,3.5984,3.6012,3.6043,3.6089,3.6122,3.6165,3.6198,3.626,3.6285,3.634,3.6386,3.6468,3.6514,3.6567,3.6579,3.6592,3.6587,3.6575,3.658,3.6578,3.6582,3.6593,3.6593,3.6593,3.6593,0,3.5911,3.593,3.5976,3.6028,3.6066,3.611,3.6155,3.6177,3.6228,3.6263,3.6316,3.6352,3.6422,3.6476,3.6533,3.6567,3.6589,3.6594,3.6601,3.6592,3.6575,3.6585,3.655,3.6593,3.6593,3.6593,3.6593,3.6593,3.5925,3.5955,3.6007,3.6056,3.6094,3.6135,3.6168,3.6206,3.6251,3.6311,3.6333,3.6388,3.6439,3.6519,3.6552,3.6595,3.6599,3.6609,3.6612,3.6614,3.6613,3.6566,3.6606,3.6606,3.6606,3.6606,3.6606,0,3.5955,3.5989,3.6034,3.6095,3.6134,3.6149,3.6198,3.623,3.6278,3.6323,3.6367,3.6428,3.648,3.6529,3.6583,3.6608,3.6619,3.6621,3.662,3.6628,3.6607,3.6595,3.6611,3.6611,3.6611,3.6611,3.6611,3.6611,3.5975,3.6027,3.6052,3.6123,3.6157,3.621,3.6237,3.6275,3.6311,3.6377,3.642,3.6451,3.6498,3.6555,3.6603,3.6617,3.6635,3.6634,3.665,3.663,3.6629,3.6628,3.6618,3.6638,3.6638,3.6668,3.6668,3.6668]}]]